Wind_Speed
21 19 24 29 28 25 26 26 27 27 25 25 27 28 26 26 26 26 26 26 25 23 25 32 30 25 26 29 26 26 24 25 28 26 28 30 32 38 40 36 31 33 31
33 24 28 31 32 30 28 29 28 29 27 27 27 26 23 22 25 26 26 26 27 27 27 25 26 29 26 25 28 29 28 26 28 29 26 29 34 39 41 36 34 33 32
42 40 37 34 33 26 25 28 30 28 31 30 29 29 29 32 31 28 28 30 31 30 29 29 28 27 30 29 28 28 32 29 29 31 28 29 33 39 42 38 37 34 36
26 32 38 38 32 27 29 26 25 28 29 34 34 33 31 29 31 32 30 31 32 33 32 30 29 26 25 28 31 29 31 32 34 32 32 31 32 36 43 44 39 38 38
24 27 32 39 34 30 26 26 27 30 33 33 34 35 36 35 35 35 33 33 34 34 34 32 30 29 26 25 28 32 33 32 30 34 35 34 33 37 44 46 45 39 41
35 29 36 38 40 39 39 38 34 34 36 39 39 36 38 38 36 34 36 39 41 40 40 38 35 33 32 30 28 28 31 33 35 33 35 37 36 41 43 47 47 45 41
37 33 36 41 39 39 39 41 42 43 41 40 40 41 42 40 38 38 39 41 41 42 44 44 43 41 39 37 35 32 30 31 35 37 37 39 38 41 45 46 49 50 48
44 41 34 36 41 42 41 44 47 45 45 45 43 43 44 45 44 43 43 44 47 48 47 46 45 44 43 43 42 39 36 34 34 37 38 39 43 42 42 49 51 52 53
51 40 45 42 45 45 45 47 47 46 47 48 50 51 50 50 50 49 49 50 49 48 50 49 48 47 46 44 43 44 44 41 39 37 38 40 42 44 45 46 52 56 54
48 49 49 50 51 45 45 44 46 46 47 50 55 57 55 56 56 58 56 55 54 53 53 55 56 54 53 50 50 48 48 47 45 43 41 41 44 43 46 46 49 53 58
46 46 48 50 50 51 51 51 51 51 52 53 54 55 59 61 62 64 64 65 65 64 61 58 57 55 58 58 56 54 52 51 49 49 49 48 46 47 47 47 47 51 54
36 38 37 42 47 50 53 55 56 57 57 57 57 59 61 62 64 66 68 70 71 71 71 70 69 67 64 62 63 62 61 59 58 56 55 56 53 53 51 52 53 52 52
36 38 42 45 45 46 48 50 52 53 57 60 62 65 66 67 69 71 72 74 74 73 73 74 73 72 72 72 71 71 71 69 67 67 63 62 61 59 57 58 57 58 56
31 36 39 43 48 48 49 50 53 54 52 51 54 59 64 68 71 72 72 76 79 81 80 79 77 76 75 74 74 74 75 76 75 74 74 69 68 67 64 61 62 63 61
25 26 28 29 31 32 34 35 36 39 41 44 47 51 54 57 60 65 69 73 76 80 84 87 87 85 83 82 80 78 76 76 77 76 77 76 76 73 72 71 66 66 66
31 32 32 32 34 35 37 38 39 41 45 47 49 51 53 56 59 62 64 66 69 72 76 80 85 91 94 94 93 90 86 83 80 79 78 78 78 77 78 79 77 73 71
36 37 38 39 40 41 43 46 48 50 51 52 53 56 59 62 64 64 66 67 69 72 77 79 79 80 83 89 96 97 97 97 92 87 85 84 81 79 78 78 76 76 76
38 41 43 43 45 48 49 52 54 56 57 57 57 61 65 67 70 73 75 76 77 78 78 81 84 84 86 84 84 88 94 96 98 98 97 94 90 88 86 84 82 79 77
39 41 46 50 51 53 55 55 57 57 58 63 65 68 78 79 81 82 85 88 89 89 88 87 87 89 89 88 88 89 86 84 88 95 97 97 98 97 96 93 91 88 85
41 45 48 52 56 58 57 57 59 62 66 69 72 78 85 82 84 83 89 95 95 98 98 97 95 94 94 94 93 91 91 91 89 88 89 94 98 99 98 97 97 95 94
41 42 44 47 52 54 57 60 65 69 71 76 82 90 89 90 87 89 95 98 99 100 103 101 102 105 101 100 99 98 93 91 91 89 88 88 89 93 98 99 97 95 95
50 48 49 51 54 56 61 66 72 71 74 75 78 81 87 85 90 93 97 98 102 110 113 110 105 104 104 108 105 103 101 100 97 92 91 89 87 88 89 94 97 99 98
55 58 57 57 59 62 63 67 72 76 81 82 86 91 92 92 95 98 99 103 108 106 106 113 109 105 108 112 112 109 106 104 102 101 96 94 91 89 88 89 92 95 96
61 64 67 69 70 74 74 76 78 80 80 85 93 95 98 106 105 102 104 105 104 106 107 106 109 107 105 114 117 115 112 109 105 102 103 99 97 94 92 89 89 90 94
65 69 72 72 73 75 76 74 75 81 87 92 97 101 106 107 103 103 109 113 116 112 101 102 108 107 105 110 120 121 116 114 112 109 104 106 103 101 96 95 92 92 92
69 73 76 73 78 78 81 80 87 92 98 104 107 110 103 101 102 109 114 113 112 111 106 100 103 112 112 113 117 123 124 119 118 116 112 108 109 106 103 100 98 97 95
Wind_Direction
194 221 230 253 257 256 248 245 246 246 247 249 249 255 258 250 251 252 255 255 260 259 253 248 255 259 261 260 266 264 252 238 237 240 231 231 227 224 226 229 232 230 233
238 240 230 245 253 252 251 249 246 244 241 247 256 259 254 249 250 256 261 260 265 265 267 267 266 261 258 259 258 262 260 245 239 243 242 235 228 222 223 227 227 226 230
243 249 242 234 252 252 247 249 252 250 247 245 251 253 256 254 262 264 262 260 262 264 265 267 266 263 260 257 256 253 256 252 239 239 239 239 232 226 221 225 224 223 229
221 230 228 229 240 251 250 248 256 256 255 249 247 252 255 263 262 260 258 256 260 262 263 265 266 266 261 257 255 251 249 254 249 241 244 242 236 229 226 221 226 228 233
203 213 225 230 235 243 250 245 249 259 256 252 250 255 256 257 257 258 260 254 255 256 257 259 260 264 266 267 262 256 254 255 254 248 243 242 237 230 226 224 226 232 235
219 216 230 231 239 244 248 251 249 247 254 258 255 254 255 256 259 263 263 262 258 253 253 252 256 261 264 264 267 265 257 254 256 250 247 245 237 235 232 230 226 233 237
227 227 236 236 246 255 254 251 255 258 259 258 261 261 260 261 264 264 266 267 265 259 255 256 254 255 257 261 262 260 259 257 253 253 251 247 246 236 236 233 233 231 233
234 237 233 238 245 252 257 260 262 261 257 259 261 263 263 263 264 266 266 266 264 264 258 258 257 255 254 253 253 255 255 255 253 250 250 249 247 246 241 237 237 236 236
234 239 239 237 242 250 254 255 258 261 262 263 260 259 259 261 263 262 261 262 264 266 264 261 258 256 258 257 258 257 253 251 249 248 248 249 248 249 248 246 241 239 238
246 247 247 248 246 252 255 256 259 262 263 264 264 262 261 260 260 258 258 259 259 260 261 263 262 261 260 260 260 259 259 259 256 252 249 247 249 249 247 250 246 244 241
244 246 249 252 254 256 258 260 261 264 264 264 263 263 262 261 261 260 262 262 260 259 258 260 260 263 262 259 258 257 257 256 256 258 258 255 251 249 249 248 249 249 248
251 255 258 259 259 260 261 263 266 268 269 268 267 266 266 265 264 265 265 265 265 265 264 263 262 261 260 259 259 258 258 257 257 258 258 258 259 257 253 251 249 250 251
259 262 263 263 264 263 264 265 267 269 270 270 271 270 270 271 270 268 266 266 265 266 266 264 263 264 264 263 261 259 259 257 257 258 258 258 258 254 255 257 253 251 250
271 270 269 266 265 267 268 270 270 273 276 277 276 273 270 269 269 269 270 270 268 266 265 263 263 262 262 261 261 261 260 258 257 258 258 256 256 257 254 253 256 255 254
280 281 281 278 277 278 279 277 277 276 276 276 276 275 274 274 273 272 270 268 268 267 266 266 265 264 262 261 259 258 258 257 257 257 257 258 257 253 253 254 253 253 253
279 279 278 278 280 279 274 274 273 275 276 277 277 278 277 276 276 274 272 271 271 271 270 268 267 265 264 263 262 259 258 256 255 256 256 255 255 254 255 254 253 252 250
284 280 278 273 272 274 274 275 277 276 277 278 279 280 280 279 277 275 273 272 272 272 270 268 268 266 264 263 262 261 260 257 254 255 255 255 255 253 252 253 253 253 252
285 278 279 278 276 276 276 275 277 278 277 277 279 284 284 281 281 278 275 275 272 269 268 268 266 265 265 266 263 261 260 258 258 257 253 253 254 253 253 251 251 252 252
292 285 281 280 280 279 279 278 279 280 287 286 283 288 294 288 283 280 278 276 273 268 266 265 264 264 263 262 262 262 261 260 257 255 255 254 252 251 252 253 253 252 251
310 298 290 287 286 285 281 283 287 293 293 291 288 286 288 287 281 279 279 276 273 273 268 264 263 261 260 261 259 259 260 258 258 257 255 253 253 253 251 251 251 252 252
312 304 300 305 300 298 297 296 294 291 291 289 285 286 291 288 282 278 277 278 272 272 271 269 265 261 260 258 258 258 256 255 256 255 255 254 253 251 252 251 249 249 249
315 314 306 301 303 306 305 303 303 299 295 293 292 291 289 286 280 279 275 274 273 271 270 270 268 267 264 259 256 255 255 254 254 255 254 253 253 253 251 250 251 249 247
317 316 313 312 310 308 302 302 303 301 300 296 299 302 301 297 297 284 279 277 273 274 274 271 270 265 262 261 256 253 252 252 254 254 254 253 253 252 251 250 249 249 249
319 319 316 312 310 310 307 307 303 302 305 306 306 306 306 306 298 291 285 283 278 276 273 270 266 264 260 255 256 253 251 250 249 251 253 252 252 251 251 252 250 250 249
317 318 316 313 311 307 306 304 306 310 309 311 312 312 305 307 300 296 293 291 288 286 279 267 260 259 259 255 253 253 252 251 249 247 248 252 251 251 250 249 249 248 247
316 316 313 308 312 315 314 308 310 309 314 312 312 311 305 305 299 294 292 289 286 284 281 272 259 255 255 254 252 251 251 252 250 248 247 247 251 251 250 250 249 248 247
Height
10802 10805 10808 10807 10809 10811 10815 10818 10821 10823 10824 10825 10826 10826 10828 10829 10829 10829 10830 10830 10830 10831 10833 10834 10835 10836 10836 10837 10836 10836 10839 10841 10842 10844 10845 10847 10848 10850 10853 10857 10860 10861 10862
10797 10802 10804 10803 10805 10808 10811 10814 10817 10818 10820 10822 10823 10825 10826 10827 10828 10828 10828 10828 10829 10829 10829 10830 10831 10832 10833 10833 10834 10834 10835 10838 10839 10840 10840 10842 10843 10846 10849 10852 10856 10856 10857
10796 10800 10802 10801 10801 10804 10807 10810 10813 10815 10816 10817 10819 10821 10822 10822 10824 10825 10825 10825 10826 10826 10826 10826 10827 10828 10828 10829 10830 10832 10832 10833 10834 10835 10836 10837 10839 10841 10844 10847 10850 10851 10852
10787 10791 10794 10795 10797 10800 10803 10805 10808 10810 10811 10813 10814 10814 10815 10816 10818 10819 10821 10821 10822 10822 10823 10823 10824 10824 10824 10825 10826 10827 10828 10829 10830 10831 10831 10833 10834 10837 10839 10841 10844 10846 10847
10783 10784 10787 10789 10792 10796 10798 10800 10801 10802 10802 10803 10804 10806 10807 10810 10812 10814 10815 10817 10817 10817 10817 10818 10819 10820 10821 10821 10821 10822 10823 10824 10824 10826 10827 10827 10829 10830 10832 10834 10837 10840 10841
10781 10783 10786 10789 10790 10791 10794 10796 10796 10798 10799 10799 10800 10801 10803 10805 10807 10808 10809 10810 10811 10811 10811 10812 10813 10814 10815 10815 10816 10817 10817 10818 10819 10820 10821 10822 10823 10824 10827 10830 10830 10834 10836
10779 10781 10784 10787 10787 10788 10788 10790 10792 10793 10794 10794 10795 10796 10798 10799 10801 10803 10804 10804 10804 10805 10805 10805 10806 10807 10808 10808 10809 10810 10811 10812 10813 10814 10815 10816 10818 10819 10821 10823 10824 10826 10827
10776 10778 10780 10783 10784 10785 10784 10785 10786 10788 10789 10789 10789 10790 10790 10792 10793 10795 10796 10797 10797 10797 10798 10797 10798 10799 10799 10800 10801 10802 10803 10805 10806 10807 10808 10809 10812 10813 10816 10817 10817 10818 10820
10774 10775 10776 10778 10778 10779 10778 10779 10779 10780 10781 10782 10783 10784 10785 10787 10787 10787 10788 10788 10788 10789 10789 10789 10791 10791 10792 10793 10794 10794 10794 10795 10797 10798 10799 10801 10804 10806 10809 10809 10809 10810 10812
10770 10771 10772 10773 10773 10773 10773 10772 10773 10774 10774 10775 10775 10775 10775 10776 10777 10778 10778 10778 10778 10779 10779 10779 10780 10782 10783 10783 10785 10785 10786 10788 10789 10790 10791 10792 10794 10797 10799 10800 10801 10801 10803
10767 10767 10768 10768 10767 10767 10766 10765 10765 10765 10765 10765 10765 10764 10765 10766 10766 10766 10766 10766 10767 10766 10766 10767 10768 10769 10770 10772 10773 10775 10775 10776 10779 10780 10782 10784 10785 10787 10789 10790 10790 10792 10794
10763 10763 10762 10762 10761 10760 10759 10758 10758 10757 10757 10756 10756 10755 10754 10754 10753 10753 10752 10752 10752 10753 10753 10754 10756 10756 10756 10758 10760 10762 10763 10764 10766 10768 10770 10772 10775 10777 10778 10779 10781 10781 10783
10755 10755 10754 10754 10753 10752 10752 10751 10750 10748 10747 10746 10745 10745 10744 10742 10739 10739 10738 10738 10738 10738 10738 10739 10740 10740 10742 10743 10745 10746 10748 10750 10752 10754 10757 10759 10761 10764 10766 10767 10769 10770 10772
10749 10748 10748 10747 10746 10744 10742 10740 10739 10737 10734 10731 10730 10730 10730 10728 10726 10724 10723 10722 10721 10721 10721 10722 10723 10724 10725 10725 10727 10729 10732 10734 10735 10737 10740 10744 10747 10748 10751 10754 10756 10759 10761
10745 10743 10741 10739 10737 10736 10735 10733 10731 10728 10725 10722 10719 10717 10715 10712 10710 10708 10706 10704 10702 10701 10701 10702 10703 10704 10707 10707 10709 10711 10713 10715 10717 10719 10721 10726 10730 10733 10734 10738 10741 10744 10746
10738 10736 10733 10731 10730 10728 10725 10722 10719 10716 10712 10709 10706 10703 10699 10697 10695 10693 10691 10689 10687 10683 10681 10680 10681 10682 10683 10686 10688 10691 10693 10696 10698 10701 10702 10705 10709 10714 10717 10719 10724 10728 10731
10731 10729 10727 10724 10721 10718 10715 10712 10709 10705 10701 10698 10694 10690 10686 10683 10679 10676 10673 10670 10668 10666 10665 10663 10661 10659 10660 10661 10662 10665 10668 10673 10676 10680 10682 10684 10688 10692 10696 10700 10705 10711 10715
10724 10721 10718 10715 10712 10708 10704 10699 10696 10692 10688 10684 10679 10676 10672 10667 10663 10659 10654 10650 10646 10644 10643 10642 10641 10639 10638 10639 10640 10639 10642 10646 10650 10655 10659 10662 10664 10669 10675 10679 10684 10690 10696
10715 10712 10708 10704 10700 10696 10691 10687 10682 10678 10674 10668 10663 10658 10653 10647 10641 10636 10631 10627 10624 10621 10619 10617 10616 10617 10614 10616 10617 10617 10618 10621 10623 10628 10631 10635 10640 10645 10650 10657 10663 10669 10675
10706 10702 10698 10694 10689 10684 10678 10673 10669 10664 10658 10651 10645 10637 10629 10623 10619 10613 10608 10603 10599 10595 10593 10593 10591 10588 10589 10592 10592 10593 10594 10595 10598 10602 10606 10609 10613 10619 10625 10631 10639 10646 10651
10694 10689 10685 10679 10674 10668 10662 10656 10651 10643 10637 10631 10623 10613 10607 10599 10594 10587 10580 10575 10570 10563 10559 10562 10563 10563 10558 10563 10563 10567 10569 10567 10572 10577 10579 10584 10588 10592 10599 10606 10612 10619 10626
10679 10673 10668 10662 10656 10650 10644 10637 10629 10620 10612 10605 10597 10589 10581 10573 10566 10558 10550 10541 10536 10532 10529 10528 10531 10531 10529 10529 10534 10537 10541 10541 10547 10550 10551 10556 10563 10569 10575 10579 10585 10593 10600
10662 10657 10651 10646 10640 10633 10626 10618 10610 10601 10591 10580 10569 10559 10547 10538 10529 10521 10515 10512 10508 10500 10493 10487 10488 10494 10495 10491 10496 10502 10511 10515 10517 10519 10527 10530 10536 10542 10548 10552 10559 10565 10573
10648 10642 10635 10628 10620 10613 10605 10596 10587 10578 10568 10554 10543 10530 10514 10498 10486 10477 10473 10467 10465 10462 10457 10450 10448 10450 10454 10458 10454 10464 10474 10483 10488 10492 10496 10503 10507 10514 10521 10532 10537 10542 10548
10633 10625 10617 10609 10602 10594 10584 10575 10564 10554 10543 10530 10515 10501 10484 10467 10451 10436 10425 10417 10410 10411 10413 10411 10408 10409 10412 10420 10422 10425 10434 10446 10457 10464 10471 10468 10479 10486 10495 10500 10510 10517 10522
10617 10609 10603 10594 10586 10576 10564 10552 10541 10529 10516 10501 10484 10468 10451 10434 10419 10405 10395 10384 10374 10364 10363 10368 10370 10372 10374 10380 10386 10390 10395 10406 10418 10428 10443 10443 10442 10455 10465 10475 10480 10488 10498